TimeMST,TemperatureF,Dew PointF,Humidity,Sea Level PressureIn,VisibilityMPH,Wind Direction,Wind SpeedMPH,Gust SpeedMPH,PrecipitationIn,Events,Conditions,WindDirDegrees,DateUTC
12:53 AM,59.0,23.0,25,29.65,10.0,SSW,3.5,-,N/A,,Clear,200,2012-03-17 07:53:00
1:53 AM,57.9,23.0,26,29.64,10.0,South,3.5,-,N/A,,Clear,180,2012-03-17 08:53:00
2:53 AM,59.0,23.0,25,29.62,10.0,SSW,3.5,-,N/A,,Clear,210,2012-03-17 09:53:00
3:53 AM,55.9,23.0,28,29.61,10.0,South,5.8,-,N/A,,Clear,180,2012-03-17 10:53:00
4:53 AM,53.1,21.9,30,29.62,10.0,SE,4.6,-,N/A,,Clear,140,2012-03-17 11:53:00
5:53 AM,52.0,21.0,30,29.62,10.0,South,4.6,-,N/A,,Clear,190,2012-03-17 12:53:00
6:53 AM,55.0,19.9,25,29.62,10.0,SSE,9.2,-,N/A,,Clear,160,2012-03-17 13:53:00
7:53 AM,55.0,21.0,27,29.61,10.0,Variable,4.6,-,N/A,,Clear,0,2012-03-17 14:53:00
8:53 AM,57.9,23.0,26,29.61,10.0,SSE,13.8,-,N/A,,Clear,150,2012-03-17 15:53:00
9:53 AM,60.1,23.0,24,29.61,10.0,South,18.4,26.5,N/A,,Clear,170,2012-03-17 16:53:00
10:53 AM,63.0,23.0,22,29.59,10.0,SSE,20.7,27.6,N/A,,Clear,160,2012-03-17 17:53:00
11:53 AM,64.9,23.0,20,29.57,10.0,SSE,19.6,27.6,N/A,,Clear,160,2012-03-17 18:53:00
12:53 PM,66.9,19.9,17,29.51,10.0,SE,20.7,29.9,N/A,,Clear,140,2012-03-17 19:53:00
1:53 PM,70.0,19.9,15,29.45,10.0,South,17.3,26.5,N/A,,Partly Cloudy,180,2012-03-17 20:53:00
2:53 PM,69.1,19.0,15,29.43,9.0,South,19.6,40.3,N/A,,Overcast,190,2012-03-17 21:53:00
3:53 PM,68.0,17.6,15,29.56,10.0,SSW,13.8,29.9,N/A,,Clear,210,2012-03-17 22:53:00
4:53 PM,66.9,18.0,15,29.43,10.0,South,18.4,29.9,N/A,,Clear,190,2012-03-17 23:53:00
5:53 PM,64.0,19.9,18,29.45,10.0,South,17.3,26.5,N/A,,Clear,190,2012-03-18 00:53:00
6:53 PM,62.1,19.9,20,29.44,10.0,South,16.1,29.9,N/A,,Clear,180,2012-03-18 01:53:00
7:53 PM,59.0,24.1,26,29.46,10.0,South,20.7,28.8,N/A,,Clear,180,2012-03-18 02:53:00
8:53 PM,57.9,25.0,28,29.46,10.0,South,19.6,28.8,N/A,,Clear,170,2012-03-18 03:53:00
9:53 PM,57.9,28.0,32,29.44,10.0,South,21.9,28.8,N/A,,Mostly Cloudy,180,2012-03-18 04:53:00
10:53 PM,55.0,33.1,43,29.44,10.0,South,13.8,23.0,N/A,,Overcast,190,2012-03-18 05:53:00
11:53 PM,52.0,35.1,53,29.41,10.0,South,13.8,-,0.00,Rain,Light Rain,170,2012-03-18 06:53:00